Location: Banios
(43.0451°N, 0.2335°E)
Time: 13:55:12
(UTC+00:00)

Cosmos 841 Rocket - Pass Details

Date: 25 January 2021
Orbit: 746 x 773 km, 74.0° (Epoch: 25 February)

Event Time Altitude Azimuth Distance (km) Brightness Sun altitude
Exits shadow 05:32:40 40° 266° (W) 1,104 3.8 -19.7°
Maximum altitude 05:33:37 44° 296° (WNW) 1,033 3.7 -19.5°
Drops below altitude 10° 05:38:32 10° 8° (N) 2,280 5.9 -18.7°
Sets 05:41:02 0° 15° (NNE) 3,212 6.8 -18.2°
